Simultaneous Nadir Overpasses (SNOs) Predictions

Prediction of SNOs between LANDSAT-8 and METOP-A Satellite Orbit:

Table of predicted SNOs for the next 14.0 days since TLE Epoch: 2/3/2015
Index Date (LANDSAT-8) Time (LANDSAT-8) Lat,Lon (LANDSAT-8) SZA (LANDSAT-8 ) Date (METOP-A) Time (METOP-A) Lat,Lon (METOP-A) SZA (METOP-A ) Distance(km) Time Diff (sec)
1 02/05/2015 11:32:24 81.09, 46.00 98.60 02/05/2015 11:31:13 81.09, 45.89 98.56 2.04 71
2 02/05/2015 12:21:49 -81.14,-145.70 81.32 02/05/2015 12:21:51 -81.13,-145.84 81.34 2.72 2
3 02/08/2015 07:06:37 81.10, 112.63 97.75 02/08/2015 07:05:36 81.11, 112.77 97.75 2.53 61
4 02/08/2015 07:56:03 -81.13, -79.41 82.22 02/08/2015 07:56:15 -81.13, -79.31 82.20 1.95 12
5 02/11/2015 02:40:49 81.10, 179.07 96.85 02/11/2015 02:39:59 81.11, 179.23 96.85 2.98 50
6
